Flag for Greece Weather past 2 weeks in Acharnes, Greece

Now
70 °F

Clear.


Feels Like: 70 °F
Forecast: 69 / 90 °F
Wind: No wind

Location: Elefsis Airport

Current Time: Sep 21, 2014 at 3:39:26 AM

Latest Report: Sep 21, 2014 at 2:50 AM


Visibility: 10 mi

Pressure: 30.01 "Hg

Humidity: 73%

Dew point: 61 °F

Location of AcharnesLocation

Historic Weather in Acharnes — Graph

°F

Acharnes temperature yesterday

Maximum temperature yesterday: 82 °F (at 1:50 PM)
Minimum temperature yesterday: 64 °F (at 4:50 AM)
Average temperature yesterday: 72 °F

Past Weeks' High & Low Weather Summary

 TemperatureHumidityPressure
High90 °F (Sep 12, 4:50 PM)100% (Sep 8, 12:50 AM)30.18 "Hg (Sep 8, 12:50 AM)
Low64 °F (Sep 11, 5:50 AM)27% (Sep 11, 4:20 PM)29.68 "Hg (Sep 6, 4:20 PM)
Average76 °F60%29.92 "Hg
* Reported Sep 6 2:20 AM — Sep 21 2:20 AM, Acharnes, Weather by CustomWeather, © 2014

Note: Actual official high and low records may vary slightly from our data, if they occured in-between our weather recording intervals... More about our weather records

Advertising

Acharnes weather history for previous 24 hours

 ConditionsComfort  
Time TempWeatherWind HumidityBarometerVisibility
2:20 AM
Sep 21
70 °FClear.No wind73%30.01 "Hg10 mi
1:50 AM70 °FClear.No wind73%30.01 "Hg10 mi
1:20 AM70 °FClear.No wind73%30.04 "Hg10 mi
12:50 AM70 °FClear.No wind73%30.04 "Hg10 mi
12:20 AM70 °FClear.No wind73%30.04 "Hg10 mi
11:50 PM
Sep 20
70 °FClear.No wind73%30.04 "Hg10 mi
10:50 PM72 °FClear.7 mph69%30.04 "Hg10 mi
10:20 PM73 °FClear.No wind65%30.07 "Hg10 mi
9:50 PM75 °FClear.No wind61%30.07 "Hg10 mi
9:20 PM75 °FClear.5 mph61%30.07 "Hg10 mi
8:50 PM75 °FClear.5 mph61%30.07 "Hg10 mi
4:20 PM82 °FScattered clouds.6 mph45%30.07 "HgN/A
3:50 PM82 °FScattered clouds.6 mph45%30.07 "HgN/A
3:20 PM81 °FPassing clouds.7 mph48%30.09 "HgN/A
2:50 PM81 °FScattered clouds.7 mph48%30.09 "HgN/A
2:20 PM82 °FSunny.8 mph42%30.09 "Hg10 mi
1:50 PM82 °FSunny.7 mph42%30.09 "Hg10 mi
12:50 PM81 °FSunny.No wind42%30.12 "Hg10 mi
12:20 PM81 °FSunny.6 mph45%30.15 "Hg10 mi
11:50 AM79 °FSunny.6 mph48%30.15 "Hg10 mi
11:20 AM79 °FSunny.No wind39%30.15 "Hg10 mi
10:50 AM79 °FSunny.No wind39%30.15 "Hg10 mi
10:20 AM77 °FSunny.No wind42%30.15 "Hg10 mi
9:50 AM77 °FSunny.No wind44%30.15 "Hg10 mi
9:20 AM73 °FSunny.No wind50%30.15 "Hg10 mi
8:50 AM70 °FSunny.No wind57%30.15 "Hg10 mi
8:20 AM66 °FSunny.No wind68%30.18 "Hg10 mi
7:50 AM66 °FClear.No wind64%30.15 "Hg10 mi
7:20 AM64 °FClear.No wind68%30.15 "Hg10 mi
6:50 AM64 °FClear.No wind68%30.15 "Hg10 mi
6:20 AM64 °FClear.No wind68%30.15 "Hg10 mi
5:50 AM64 °FClear.No wind68%30.15 "Hg10 mi
5:20 AM64 °FClear.No wind68%30.15 "Hg10 mi
4:50 AM64 °FClear.No wind68%30.15 "Hg10 mi
3:50 AM66 °FClear.No wind64%30.15 "Hg10 mi
Weather by CustomWeather, © 2014

See weather overviewHow to use our weather pages